Погода в Нефедово

Россия / Вологодская область     59°45′54″N   39°04′03″E
темп.,
°C
ветер,
м/с
пор.,
м/с
влажн.,
%
обл.,
%
осадки,
мм/ч
давл.,
гПа
погр.,
м
9 мая, вс
вс900:00+7ююв2797100 4.8 1005869
03:00+6св1197100 7.4 100447
06:00+5сз4898100 1.9 1004430
09:00+2сз41198100 5.4 1007535
12:00+7сз5880100 0.3 10101154
15:00+9сз695074 0.3 10131635
18:00+9ссз510545 0.0 10151706
21:00+3зсз36720 0.0 1018104
10 мая, пн
пн1000:00+1зсз38764 0.0 1021163
03:00+1зсз26840 0.0 1024106
06:00+3з237370 0.0 1026104
09:00+9юз24515 0.0 1026594
12:00+12юз35445 0.0 10271606
15:00+13юз564120 0.0 10271872
18:00+11ююз485799 0.0 1027591
21:00+8ююз3106693 0.0 1028321
11 мая, вт
вт1100:00+6ююз3117873 0.0 1029209
03:00+6ююз31085100 0.0 1029220
06:00+8ююз3980100 0.0 1030258
09:00+13ююз476614 0.0 1030439
12:00+17юз565533 0.0 1030906
15:00+19юз455256 0.0 10301055
18:00+17ююз356319 0.0 1029584
21:00+11ю37845 0.0 1030112
12 мая, ср
ср1200:00+9ююз25836 0.0 103185
03:00+8ююз228719 0.0 103126
06:00+11юв12790 0.0 103169
09:00+16ююв34600 0.0 1031595
12:00+19юв45475 0.0 10301031
15:00+20юв45432 0.0 10291182
18:00+19юв35530 0.0 1028430
21:00+13юв22750 0.0 102836
13 мая, чт
чт1300:00+11юв22775 0.0 102823
03:00+10вюв22825 0.0 102824
06:00+12вюв25819 0.0 1028139
09:00+18вюв366419 0.0 1026487
12:00+22юв47555 0.0 10251366
15:00+23юв564934 0.0 10231946
18:00+20юв3964100 0.0 1022424
21:00+17юв31077100 0.1 1021292